QPF
0.01 0.01 0.01 0.01 0.01 0.03 0.04 0.04 0.03 0.03 0.04 0.04 0.04 0.05 0.05 0.06 0.05 0.04 0.04 0.04 0.06 0.09 0.09 0.09 0.07 0.06 0.05 0.05 0.04 0.04 0.03 0.03 0.02 0.02 0.01 0.01 0.01 0.00 0.00 0.00 0.00 0.00 0.01
0.01 0.00 0.00 0.00 0.01 0.01 0.02 0.03 0.04 0.03 0.03 0.04 0.04 0.06 0.07 0.06 0.04 0.04 0.05 0.05 0.04 0.04 0.04 0.04 0.04 0.05 0.06 0.06 0.05 0.05 0.05 0.05 0.04 0.04 0.02 0.01 0.01 0.01 0.00 0.00 0.00 0.00 0.00
0.01 0.00 0.00 0.00 0.00 0.01 0.01 0.02 0.03 0.03 0.03 0.03 0.03 0.05 0.07 0.08 0.06 0.05 0.06 0.05 0.04 0.03 0.03 0.03 0.02 0.03 0.04 0.04 0.04 0.04 0.05 0.05 0.06 0.07 0.05 0.02 0.01 0.00 0.00 0.00 0.00 0.00 0.00
0.01 0.01 0.00 0.00 0.00 0.00 0.00 0.01 0.01 0.02 0.03 0.03 0.02 0.03 0.05 0.07 0.06 0.05 0.05 0.05 0.04 0.03 0.03 0.03 0.03 0.03 0.03 0.03 0.05 0.05 0.05 0.05 0.05 0.05 0.04 0.02 0.01 0.00 0.00 0.00 0.00 0.00 0.00
0.02 0.01 0.00 0.00 0.00 0.00 0.00 0.00 0.01 0.01 0.02 0.03 0.02 0.02 0.04 0.05 0.06 0.05 0.04 0.03 0.02 0.02 0.04 0.05 0.05 0.05 0.04 0.04 0.04 0.05 0.05 0.05 0.05 0.05 0.04 0.03 0.02 0.02 0.02 0.01 0.01 0.01 0.00
0.00 0.00 0.00 0.00 0.00 0.00 0.00 0.00 0.01 0.01 0.02 0.02 0.03 0.02 0.03 0.05 0.06 0.04 0.03 0.02 0.01 0.01 0.02 0.03 0.04 0.04 0.03 0.03 0.04 0.05 0.06 0.07 0.06 0.05 0.04 0.04 0.02 0.02 0.01 0.01 0.00 0.00 0.00
0.01 0.01 0.01 0.00 0.00 0.00 0.00 0.00 0.01 0.02 0.02 0.02 0.03 0.03 0.03 0.05 0.06 0.04 0.03 0.01 0.01 0.01 0.01 0.02 0.04 0.04 0.03 0.02 0.03 0.03 0.04 0.05 0.05 0.04 0.03 0.03 0.02 0.02 0.02 0.01 0.01 0.01 0.01
0.01 0.01 0.01 0.01 0.00 0.00 0.00 0.00 0.01 0.01 0.02 0.02 0.03 0.04 0.04 0.05 0.08 0.06 0.04 0.02 0.01 0.01 0.01 0.02 0.03 0.03 0.03 0.03 0.02 0.03 0.03 0.03 0.04 0.04 0.04 0.03 0.03 0.03 0.02 0.02 0.03 0.03 0.02
0.01 0.01 0.01 0.01 0.01 0.01 0.01 0.00 0.00 0.01 0.01 0.01 0.02 0.03 0.04 0.04 0.07 0.09 0.05 0.02 0.01 0.01 0.02 0.02 0.03 0.03 0.03 0.03 0.03 0.02 0.02 0.02 0.02 0.03 0.04 0.04 0.04 0.05 0.05 0.05 0.04 0.04 0.03
0.01 0.01 0.01 0.01 0.01 0.01 0.01 0.01 0.01 0.01 0.01 0.01 0.02 0.03 0.04 0.04 0.05 0.09 0.07 0.04 0.02 0.03 0.04 0.03 0.03 0.03 0.04 0.03 0.03 0.03 0.03 0.02 0.02 0.02 0.02 0.03 0.03 0.03 0.03 0.04 0.04 0.04 0.03
0.01 0.01 0.01 0.01 0.01 0.01 0.01 0.01 0.01 0.02 0.02 0.01 0.02 0.03 0.04 0.05 0.05 0.05 0.07 0.05 0.03 0.03 0.03 0.03 0.03 0.04 0.04 0.04 0.03 0.04 0.04 0.03 0.03 0.02 0.02 0.02 0.03 0.02 0.02 0.02 0.02 0.02 0.02
0.01 0.01 0.02 0.01 0.01 0.01 0.01 0.01 0.01 0.02 0.03 0.02 0.01 0.02 0.03 0.05 0.05 0.05 0.05 0.04 0.03 0.02 0.02 0.02 0.03 0.03 0.03 0.03 0.02 0.03 0.03 0.03 0.04 0.03 0.02 0.02 0.03 0.02 0.02 0.02 0.02 0.01 0.01
0.02 0.02 0.01 0.01 0.00 0.01 0.01 0.02 0.03 0.03 0.04 0.02 0.01 0.01 0.02 0.04 0.06 0.05 0.04 0.04 0.03 0.02 0.02 0.02 0.01 0.02 0.02 0.02 0.02 0.02 0.02 0.04 0.04 0.04 0.03 0.02 0.03 0.03 0.02 0.01 0.02 0.02 0.02
0.02 0.02 0.01 0.01 0.01 0.01 0.01 0.02 0.03 0.04 0.05 0.05 0.03 0.03 0.03 0.03 0.07 0.06 0.04 0.04 0.03 0.02 0.02 0.02 0.01 0.01 0.02 0.03 0.03 0.02 0.01 0.02 0.03 0.04 0.04 0.03 0.03 0.03 0.03 0.02 0.02 0.02 0.01
0.01 0.02 0.02 0.01 0.01 0.01 0.01 0.02 0.02 0.02 0.03 0.04 0.04 0.04 0.05 0.05 0.07 0.07 0.04 0.03 0.03 0.02 0.02 0.02 0.02 0.02 0.02 0.02 0.02 0.02 0.01 0.01 0.01 0.02 0.02 0.02 0.03 0.03 0.03 0.03 0.02 0.02 0.01
0.01 0.01 0.01 0.01 0.01 0.01 0.02 0.01 0.01 0.02 0.03 0.04 0.03 0.01 0.03 0.04 0.06 0.09 0.07 0.05 0.04 0.03 0.02 0.01 0.02 0.02 0.02 0.02 0.02 0.02 0.01 0.01 0.02 0.02 0.02 0.02 0.02 0.03 0.04 0.04 0.03 0.03 0.02
0.00 0.01 0.01 0.01 0.01 0.01 0.01 0.01 0.01 0.01 0.02 0.03 0.02 0.02 0.02 0.01 0.02 0.05 0.06 0.06 0.06 0.04 0.03 0.03 0.02 0.02 0.02 0.02 0.02 0.02 0.02 0.01 0.02 0.02 0.02 0.03 0.02 0.02 0.03 0.04 0.03 0.02 0.02
0.00 0.00 0.00 0.01 0.01 0.01 0.01 0.01 0.01 0.01 0.01 0.02 0.02 0.02 0.02 0.02 0.01 0.03 0.04 0.04 0.04 0.03 0.03 0.03 0.04 0.04 0.03 0.04 0.03 0.03 0.02 0.02 0.02 0.02 0.02 0.02 0.02 0.02 0.03 0.04 0.04 0.02 0.01
0.00 0.00 0.00 0.00 0.01 0.01 0.01 0.01 0.01 0.01 0.01 0.01 0.01 0.01 0.02 0.01 0.01 0.02 0.02 0.04 0.04 0.03 0.02 0.01 0.01 0.01 0.02 0.02 0.03 0.03 0.04 0.03 0.03 0.02 0.02 0.03 0.02 0.02 0.03 0.04 0.05 0.04 0.02
0.00 0.00 0.00 0.00 0.00 0.01 0.01 0.01 0.01 0.01 0.01 0.01 0.01 0.01 0.01 0.01 0.01 0.02 0.02 0.04 0.04 0.04 0.04 0.03 0.01 0.01 0.01 0.01 0.01 0.02 0.02 0.03 0.02 0.02 0.01 0.02 0.02 0.03 0.03 0.03 0.04 0.04 0.03
0.00 0.00 0.00 0.00 0.00 0.01 0.01 0.00 0.01 0.01 0.01 0.01 0.01 0.01 0.01 0.02 0.02 0.02 0.03 0.04 0.04 0.03 0.04 0.04 0.03 0.02 0.02 0.02 0.01 0.01 0.01 0.02 0.03 0.02 0.01 0.02 0.02 0.03 0.04 0.04 0.04 0.04 0.04
0.00 0.00 0.00 0.00 0.00 0.00 0.00 0.00 0.01 0.01 0.01 0.01 0.01 0.01 0.01 0.02 0.03 0.03 0.03 0.03 0.03 0.02 0.02 0.03 0.04 0.03 0.03 0.02 0.02 0.01 0.01 0.01 0.01 0.01 0.02 0.02 0.03 0.03 0.03 0.04 0.05 0.05 0.05
0.00 0.00 0.00 0.00 0.00 0.00 0.00 0.00 0.01 0.01 0.01 0.02 0.01 0.01 0.01 0.02 0.03 0.03 0.03 0.03 0.03 0.03 0.02 0.02 0.03 0.03 0.02 0.02 0.03 0.02 0.02 0.01 0.01 0.01 0.01 0.02 0.02 0.03 0.02 0.02 0.03 0.05 0.05
0.00 0.00 0.00 0.00 0.00 0.00 0.00 0.00 0.01 0.01 0.01 0.02 0.02 0.02 0.01 0.02 0.02 0.03 0.03 0.04 0.04 0.02 0.03 0.02 0.02 0.02 0.02 0.02 0.02 0.02 0.02 0.02 0.01 0.01 0.01 0.02 0.03 0.03 0.03 0.02 0.02 0.03 0.04
0.00 0.00 0.00 0.00 0.00 0.00 0.00 0.00 0.01 0.01 0.01 0.01 0.01 0.01 0.01 0.02 0.02 0.02 0.03 0.04 0.04 0.03 0.03 0.02 0.02 0.02 0.02 0.03 0.02 0.02 0.02 0.02 0.01 0.01 0.01 0.01 0.01 0.01 0.01 0.02 0.03 0.04 0.06
0.00 0.00 0.00 0.00 0.00 0.00 0.00 0.00 0.00 0.00 0.00 0.00 0.01 0.01 0.01 0.02 0.02 0.02 0.03 0.03 0.04 0.05 0.05 0.03 0.02 0.01 0.01 0.02 0.02 0.02 0.02 0.01 0.01 0.01 0.01 0.02 0.03 0.03 0.03 0.03 0.04 0.05 0.06
MSLP
1016.20 1016.34 1016.48 1016.60 1016.69 1016.75 1016.78 1016.80 1016.83 1016.90 1017.02 1017.18 1017.38 1017.60 1017.79 1017.95 1018.03 1018.03 1017.94 1017.77 1017.55 1017.31 1017.07 1016.89 1016.76 1016.70 1016.70 1016.75 1016.84 1016.94 1017.05 1017.16 1017.26 1017.36 1017.47 1017.57 1017.66 1017.74 1017.79 1017.80 1017.76 1017.67 1017.52
1016.07 1016.31 1016.53 1016.70 1016.80 1016.85 1016.84 1016.83 1016.85 1016.92 1017.06 1017.27 1017.54 1017.83 1018.10 1018.31 1018.43 1018.46 1018.39 1018.24 1018.06 1017.86 1017.68 1017.55 1017.48 1017.46 1017.47 1017.52 1017.57 1017.62 1017.68 1017.73 1017.79 1017.87 1017.97 1018.09 1018.21 1018.32 1018.39 1018.42 1018.38 1018.27 1018.11
1015.69 1016.00 1016.30 1016.53 1016.68 1016.74 1016.75 1016.74 1016.76 1016.85 1017.04 1017.31 1017.65 1018.00 1018.34 1018.60 1018.77 1018.83 1018.79 1018.68 1018.54 1018.39 1018.28 1018.21 1018.19 1018.20 1018.23 1018.26 1018.28 1018.28 1018.27 1018.27 1018.29 1018.35 1018.45 1018.58 1018.72 1018.86 1018.95 1018.98 1018.94 1018.83 1018.65
1015.09 1015.47 1015.84 1016.14 1016.35 1016.46 1016.50 1016.53 1016.59 1016.74 1016.98 1017.31 1017.71 1018.13 1018.52 1018.83 1019.04 1019.13 1019.13 1019.06 1018.96 1018.88 1018.83 1018.82 1018.85 1018.89 1018.93 1018.96 1018.95 1018.91 1018.85 1018.81 1018.80 1018.84 1018.94 1019.07 1019.23 1019.38 1019.49 1019.53 1019.49 1019.37 1019.17
1014.38 1014.80 1015.23 1015.60 1015.88 1016.06 1016.17 1016.25 1016.38 1016.58 1016.88 1017.28 1017.74 1018.21 1018.64 1018.99 1019.23 1019.35 1019.39 1019.36 1019.32 1019.29 1019.29 1019.34 1019.42 1019.50 1019.56 1019.58 1019.56 1019.50 1019.43 1019.36 1019.34 1019.37 1019.46 1019.60 1019.77 1019.92 1020.03 1020.07 1020.02 1019.89 1019.68
1013.67 1014.09 1014.56 1015.00 1015.35 1015.60 1015.78 1015.94 1016.14 1016.40 1016.76 1017.21 1017.71 1018.22 1018.68 1019.06 1019.32 1019.48 1019.55 1019.57 1019.57 1019.60 1019.66 1019.76 1019.88 1020.00 1020.09 1020.13 1020.12 1020.06 1019.98 1019.92 1019.89 1019.93 1020.02 1020.16 1020.32 1020.47 1020.57 1020.60 1020.53 1020.39 1020.17
1013.04 1013.46 1013.95 1014.43 1014.83 1015.15 1015.40 1015.63 1015.88 1016.20 1016.60 1017.08 1017.61 1018.14 1018.62 1019.02 1019.30 1019.49 1019.60 1019.66 1019.72 1019.80 1019.91 1020.06 1020.23 1020.38 1020.50 1020.57 1020.58 1020.55 1020.50 1020.45 1020.45 1020.49 1020.59 1020.72 1020.87 1021.00 1021.08 1021.08 1021.00 1020.84 1020.61
1012.57 1012.96 1013.45 1013.94 1014.37 1014.74 1015.03 1015.31 1015.60 1015.95 1016.38 1016.87 1017.41 1017.94 1018.44 1018.85 1019.16 1019.39 1019.54 1019.66 1019.76 1019.90 1020.06 1020.26 1020.46 1020.65 1020.81 1020.91 1020.96 1020.96 1020.95 1020.94 1020.96 1021.02 1021.13 1021.25 1021.38 1021.49 1021.53 1021.51 1021.41 1021.23 1021.00
1012.26 1012.61 1013.06 1013.54 1013.98 1014.36 1014.68 1014.97 1015.28 1015.64 1016.07 1016.56 1017.09 1017.63 1018.13 1018.56 1018.91 1019.18 1019.39 1019.57 1019.74 1019.92 1020.14 1020.37 1020.61 1020.83 1021.01 1021.15 1021.23 1021.28 1021.31 1021.34 1021.40 1021.48 1021.59 1021.71 1021.81 1021.89 1021.90 1021.85 1021.73 1021.55 1021.31
1012.08 1012.38 1012.79 1013.23 1013.64 1013.99 1014.30 1014.59 1014.89 1015.25 1015.66 1016.14 1016.67 1017.20 1017.71 1018.17 1018.57 1018.90 1019.18 1019.43 1019.66 1019.91 1020.17 1020.44 1020.70 1020.94 1021.14 1021.30 1021.42 1021.50 1021.57 1021.64 1021.73 1021.83 1021.94 1022.05 1022.14 1022.19 1022.18 1022.10 1021.97 1021.79 1021.56
1012.00 1012.23 1012.57 1012.94 1013.30 1013.61 1013.89 1014.15 1014.43 1014.76 1015.16 1015.62 1016.14 1016.67 1017.21 1017.71 1018.16 1018.57 1018.93 1019.26 1019.58 1019.89 1020.19 1020.49 1020.76 1021.01 1021.22 1021.39 1021.52 1021.63 1021.73 1021.84 1021.95 1022.07 1022.18 1022.28 1022.35 1022.38 1022.35 1022.26 1022.13 1021.96 1021.75
1011.95 1012.11 1012.37 1012.66 1012.94 1013.19 1013.42 1013.64 1013.89 1014.20 1014.58 1015.03 1015.54 1016.09 1016.66 1017.21 1017.73 1018.22 1018.67 1019.10 1019.49 1019.87 1020.22 1020.54 1020.83 1021.08 1021.28 1021.45 1021.59 1021.71 1021.83 1021.95 1022.08 1022.20 1022.32 1022.42 1022.47 1022.48 1022.44 1022.35 1022.22 1022.07 1021.90
1011.92 1012.01 1012.18 1012.38 1012.57 1012.74 1012.91 1013.09 1013.31 1013.59 1013.96 1014.40 1014.92 1015.49 1016.09 1016.69 1017.29 1017.87 1018.42 1018.93 1019.41 1019.85 1020.25 1020.60 1020.90 1021.14 1021.34 1021.50 1021.63 1021.76 1021.88 1022.01 1022.15 1022.28 1022.40 1022.48 1022.53 1022.52 1022.47 1022.38 1022.27 1022.14 1022.00
1011.92 1011.94 1012.01 1012.11 1012.21 1012.30 1012.40 1012.53 1012.72 1012.99 1013.34 1013.78 1014.30 1014.89 1015.52 1016.18 1016.85 1017.51 1018.15 1018.75 1019.31 1019.82 1020.27 1020.65 1020.96 1021.21 1021.40 1021.55 1021.68 1021.80 1021.93 1022.06 1022.20 1022.33 1022.44 1022.52 1022.55 1022.53 1022.48 1022.39 1022.28 1022.17 1022.06
1011.98 1011.93 1011.91 1011.90 1011.90 1011.91 1011.95 1012.03 1012.18 1012.43 1012.76 1013.20 1013.72 1014.32 1014.98 1015.69 1016.41 1017.14 1017.85 1018.54 1019.18 1019.75 1020.25 1020.67 1021.00 1021.26 1021.45 1021.61 1021.74 1021.86 1021.98 1022.12 1022.26 1022.38 1022.49 1022.55 1022.57 1022.54 1022.47 1022.38 1022.27 1022.17 1022.08
1012.12 1012.01 1011.90 1011.79 1011.70 1011.62 1011.59 1011.62 1011.74 1011.95 1012.27 1012.69 1013.20 1013.80 1014.47 1015.20 1015.97 1016.75 1017.52 1018.27 1018.97 1019.61 1020.16 1020.62 1020.99 1021.27 1021.49 1021.65 1021.79 1021.93 1022.06 1022.20 1022.33 1022.46 1022.55 1022.60 1022.61 1022.56 1022.48 1022.37 1022.26 1022.15 1022.06
1012.36 1012.20 1012.01 1011.82 1011.64 1011.48 1011.38 1011.36 1011.43 1011.60 1011.89 1012.28 1012.77 1013.35 1014.02 1014.75 1015.53 1016.34 1017.16 1017.96 1018.72 1019.41 1020.01 1020.52 1020.92 1021.24 1021.49 1021.68 1021.84 1021.99 1022.14 1022.29 1022.43 1022.55 1022.64 1022.68 1022.67 1022.60 1022.50 1022.37 1022.24 1022.12 1022.02
1012.69 1012.49 1012.24 1011.98 1011.72 1011.50 1011.34 1011.26 1011.28 1011.40 1011.64 1011.99 1012.44 1013.00 1013.64 1014.36 1015.14 1015.96 1016.80 1017.63 1018.43 1019.16 1019.81 1020.36 1020.81 1021.16 1021.45 1021.67 1021.87 1022.04 1022.21 1022.38 1022.53 1022.65 1022.74 1022.77 1022.74 1022.66 1022.54 1022.39 1022.24 1022.10 1021.98
1013.07 1012.85 1012.57 1012.25 1011.94 1011.66 1011.45 1011.31 1011.28 1011.36 1011.55 1011.85 1012.26 1012.77 1013.38 1014.07 1014.84 1015.66 1016.50 1017.35 1018.16 1018.92 1019.60 1020.18 1020.66 1021.06 1021.37 1021.63 1021.85 1022.06 1022.25 1022.43 1022.60 1022.73 1022.82 1022.85 1022.82 1022.73 1022.60 1022.44 1022.26 1022.10 1021.96
1013.44 1013.22 1012.93 1012.59 1012.25 1011.95 1011.69 1011.52 1011.45 1011.48 1011.63 1011.88 1012.24 1012.71 1013.28 1013.95 1014.69 1015.49 1016.33 1017.17 1017.99 1018.75 1019.44 1020.03 1020.53 1020.94 1021.27 1021.56 1021.80 1022.02 1022.24 1022.44 1022.62 1022.76 1022.87 1022.91 1022.89 1022.81 1022.68 1022.52 1022.34 1022.17 1022.02
1013.74 1013.55 1013.28 1012.95 1012.62 1012.30 1012.04 1011.85 1011.76 1011.76 1011.87 1012.09 1012.42 1012.85 1013.39 1014.03 1014.74 1015.52 1016.33 1017.15 1017.95 1018.70 1019.37 1019.95 1020.44 1020.84 1021.18 1021.46 1021.72 1021.95 1022.17 1022.39 1022.59 1022.76 1022.88 1022.95 1022.95 1022.90 1022.79 1022.64 1022.48 1022.32 1022.16
1013.95 1013.81 1013.58 1013.30 1013.00 1012.71 1012.47 1012.29 1012.19 1012.19 1012.29 1012.49 1012.80 1013.21 1013.72 1014.33 1015.02 1015.77 1016.55 1017.33 1018.08 1018.79 1019.42 1019.96 1020.42 1020.79 1021.11 1021.37 1021.62 1021.85 1022.08 1022.30 1022.52 1022.71 1022.86 1022.96 1023.00 1022.99 1022.92 1022.81 1022.68 1022.54 1022.39
1014.06 1013.98 1013.81 1013.60 1013.36 1013.14 1012.94 1012.80 1012.73 1012.74 1012.85 1013.05 1013.36 1013.76 1014.26 1014.85 1015.51 1016.22 1016.95 1017.68 1018.38 1019.02 1019.59 1020.07 1020.47 1020.80 1021.07 1021.31 1021.53 1021.75 1021.97 1022.20 1022.43 1022.64 1022.83 1022.97 1023.06 1023.09 1023.08 1023.02 1022.93 1022.82 1022.70
1014.09 1014.07 1013.99 1013.86 1013.71 1013.57 1013.44 1013.36 1013.34 1013.39 1013.53 1013.75 1014.06 1014.47 1014.96 1015.53 1016.15 1016.82 1017.50 1018.17 1018.80 1019.36 1019.86 1020.26 1020.60 1020.87 1021.09 1021.28 1021.48 1021.68 1021.89 1022.12 1022.36 1022.59 1022.81 1022.99 1023.12 1023.21 1023.25 1023.24 1023.20 1023.13 1023.04
1014.09 1014.14 1014.14 1014.10 1014.05 1013.99 1013.95 1013.94 1013.99 1014.09 1014.26 1014.51 1014.84 1015.25 1015.74 1016.28 1016.88 1017.50 1018.12 1018.71 1019.27 1019.75 1020.17 1020.50 1020.77 1020.98 1021.16 1021.32 1021.48 1021.67 1021.87 1022.10 1022.34 1022.59 1022.82 1023.03 1023.20 1023.33 1023.41 1023.45 1023.46 1023.43 1023.37
1014.10 1014.21 1014.29 1014.34 1014.37 1014.41 1014.45 1014.52 1014.63 1014.78 1015.00 1015.28 1015.63 1016.04 1016.51 1017.03 1017.59 1018.16 1018.72 1019.24 1019.72 1020.13 1020.47 1020.75 1020.96 1021.13 1021.27 1021.41 1021.56 1021.74 1021.93 1022.16 1022.40 1022.65 1022.89 1023.11 1023.30 1023.45 1023.56 1023.63 1023.66 1023.67 1023.63
Thickness
5706 5707 5708 5709 5709 5708 5707 5707 5706 5705 5704 5702 5700 5699 5697 5697 5697 5697 5696 5696 5695 5694 5693 5691 5690 5688 5687 5685 5685 5684 5682 5680 5680 5678 5676 5676 5677 5677 5676 5676 5675 5674 5674
5701 5703 5703 5704 5703 5703 5703 5702 5702 5701 5700 5699 5697 5696 5694 5693 5692 5692 5692 5691 5691 5690 5688 5687 5685 5684 5682 5681 5680 5679 5677 5675 5674 5672 5669 5667 5667 5669 5671 5669 5669 5668 5669
5696 5697 5698 5698 5698 5698 5698 5699 5698 5697 5696 5695 5693 5692 5690 5688 5687 5686 5686 5686 5686 5685 5684 5682 5681 5679 5678 5676 5675 5674 5673 5669 5668 5668 5665 5661 5657 5659 5662 5662 5662 5662 5662
5693 5693 5693 5693 5693 5694 5695 5695 5694 5693 5692 5691 5689 5686 5683 5681 5681 5681 5681 5681 5681 5680 5679 5678 5676 5675 5673 5672 5671 5670 5668 5667 5664 5663 5662 5660 5657 5654 5653 5655 5655 5655 5655
5689 5689 5689 5689 5690 5690 5690 5690 5689 5688 5687 5686 5685 5682 5679 5678 5677 5676 5676 5676 5676 5675 5674 5673 5672 5670 5669 5668 5666 5665 5664 5662 5660 5658 5657 5655 5652 5650 5648 5646 5648 5649 5649
5686 5685 5685 5685 5685 5685 5684 5684 5683 5682 5682 5681 5680 5678 5675 5673 5672 5671 5670 5670 5670 5670 5669 5668 5667 5666 5664 5663 5662 5660 5659 5657 5655 5654 5653 5651 5648 5645 5643 5640 5640 5640 5643
5682 5680 5680 5679 5679 5679 5678 5678 5677 5676 5676 5675 5674 5673 5671 5669 5668 5666 5665 5664 5664 5663 5664 5663 5662 5661 5659 5658 5657 5655 5653 5652 5650 5648 5647 5646 5645 5643 5640 5637 5635 5634 5636
5678 5676 5676 5674 5674 5673 5673 5672 5672 5671 5670 5669 5668 5667 5666 5664 5663 5662 5661 5660 5659 5659 5659 5658 5657 5656 5654 5653 5652 5650 5648 5646 5645 5643 5642 5640 5639 5638 5636 5634 5631 5629 5628
5673 5672 5671 5670 5669 5668 5667 5667 5666 5665 5664 5663 5662 5660 5659 5658 5658 5657 5656 5655 5655 5654 5653 5652 5651 5650 5648 5647 5646 5643 5642 5640 5639 5637 5636 5634 5633 5633 5632 5630 5628 5625 5622
5668 5667 5665 5664 5664 5663 5662 5661 5660 5659 5658 5657 5656 5655 5653 5653 5652 5651 5650 5649 5649 5648 5647 5646 5644 5643 5642 5641 5639 5638 5636 5634 5633 5631 5629 5628 5627 5626 5626 5624 5622 5621 5619
5662 5661 5660 5659 5658 5657 5656 5655 5654 5652 5651 5650 5649 5648 5647 5647 5646 5644 5644 5644 5643 5642 5641 5639 5638 5636 5635 5633 5632 5630 5629 5627 5625 5624 5623 5622 5621 5620 5618 5617 5616 5614 5613
5657 5656 5655 5654 5652 5651 5650 5649 5648 5646 5645 5644 5643 5641 5640 5640 5639 5638 5637 5637 5636 5635 5634 5632 5631 5629 5628 5626 5624 5623 5621 5619 5618 5617 5616 5615 5615 5613 5612 5610 5610 5608 5606
5650 5649 5648 5647 5646 5645 5644 5643 5642 5641 5640 5638 5636 5635 5634 5633 5632 5631 5630 5629 5629 5628 5627 5625 5624 5622 5620 5618 5617 5615 5614 5613 5612 5611 5610 5609 5608 5606 5605 5604 5603 5602 5601
5644 5642 5641 5640 5640 5639 5638 5637 5635 5634 5633 5631 5630 5628 5627 5626 5625 5624 5623 5622 5621 5620 5619 5618 5617 5615 5613 5611 5609 5608 5606 5605 5604 5604 5603 5603 5602 5601 5599 5598 5596 5595 5593
5639 5637 5635 5633 5632 5632 5631 5630 5629 5627 5626 5624 5623 5622 5620 5619 5618 5617 5615 5614 5613 5612 5611 5609 5608 5607 5605 5603 5601 5600 5599 5597 5596 5596 5595 5595 5596 5596 5594 5593 5590 5588 5586
5634 5632 5630 5628 5627 5626 5625 5624 5622 5620 5619 5616 5615 5614 5613 5612 5610 5609 5608 5606 5605 5603 5602 5601 5599 5598 5597 5596 5594 5592 5590 5588 5587 5587 5587 5587 5587 5587 5586 5586 5585 5584 5582
5628 5626 5625 5623 5621 5620 5619 5617 5616 5613 5611 5608 5607 5605 5604 5603 5602 5601 5599 5598 5596 5595 5593 5592 5590 5589 5588 5588 5586 5584 5582 5579 5578 5578 5577 5578 5579 5578 5577 5577 5577 5576 5576
5622 5620 5618 5617 5615 5614 5612 5610 5608 5605 5603 5600 5598 5597 5595 5594 5593 5591 5590 5589 5588 5586 5584 5583 5581 5580 5580 5579 5578 5576 5573 5571 5570 5569 5569 5568 5568 5569 5568 5568 5567 5567 5567
5616 5614 5612 5610 5607 5605 5603 5601 5599 5596 5594 5592 5590 5589 5587 5585 5584 5583 5582 5580 5578 5576 5575 5573 5572 5570 5570 5569 5569 5567 5564 5562 5561 5561 5560 5560 5559 5561 5560 5559 5558 5558 5558
5608 5606 5603 5601 5598 5596 5594 5591 5589 5587 5585 5584 5582 5580 5578 5576 5575 5574 5572 5571 5569 5567 5566 5564 5562 5561 5560 5560 5559 5558 5555 5553 5552 5551 5551 5551 5551 5552 5551 5549 5549 5548 5549
5599 5597 5594 5591 5589 5586 5584 5581 5579 5577 5577 5575 5573 5571 5569 5568 5566 5565 5563 5561 5559 5557 5555 5554 5552 5551 5550 5550 5549 5548 5546 5544 5542 5542 5542 5542 5543 5543 5543 5542 5541 5541 5540
5590 5587 5584 5581 5579 5576 5574 5572 5570 5569 5568 5565 5563 5561 5559 5558 5557 5554 5552 5550 5549 5546 5545 5543 5542 5541 5540 5540 5539 5538 5537 5536 5534 5533 5532 5533 5533 5534 5533 5532 5532 5531 5530
5580 5577 5574 5571 5569 5567 5565 5562 5561 5559 5557 5554 5552 5550 5549 5547 5545 5543 5541 5539 5537 5535 5534 5532 5531 5530 5530 5530 5529 5528 5527 5526 5524 5523 5523 5523 5523 5522 5521 5521 5521 5519 5518
5570 5567 5564 5561 5559 5557 5555 5553 5551 5549 5547 5544 5541 5539 5537 5535 5533 5531 5529 5528 5526 5524 5523 5522 5521 5520 5520 5519 5518 5517 5516 5515 5513 5512 5512 5512 5511 5509 5509 5509 5508 5507 5506
5561 5559 5555 5552 5549 5548 5546 5544 5541 5539 5536 5533 5530 5528 5526 5524 5521 5520 5517 5516 5515 5514 5513 5512 5510 5509 5510 5510 5509 5507 5505 5504 5503 5502 5500 5499 5498 5497 5496 5496 5495 5495 5495
5551 5549 5546 5543 5540 5538 5535 5534 5531 5529 5526 5523 5520 5518 5515 5513 5510 5508 5507 5506 5505 5504 5504 5503 5501 5500 5500 5500 5498 5497 5496 5495 5494 5492 5489 5488 5487 5486 5485 5485 5485 5484 5484